Springfield, VT

10:30 PM EDT on April 29, 2017 (GMT -0400)
Hartness State

Weather History for KVSF - July, 2013

Change the Weather History Date:

Monday, July 29, 2013

  Actual Average Record
Temperature  
Mean Temperature 71 °F 69 °F  
Max Temperature 83 °F 81 °F 94 °F (2015)
Min Temperature 58 °F 57 °F 51 °F (2003)
Degree Days  
Heating Degree Days 0 1  
Month to date heating degree days 15  
Since 1 June heating degree days 111  
Since 1 July heating degree days 15  
Cooling Degree Days 6 4  
Month to date cooling degree days 250 135  
Year to date cooling degree days 363 211  
Since 1 June cooling degree days 339 199  
Growing Degree Days 22 (Base 50)    
Moisture  
Dew Point 64 °F    
Average Humidity 71    
Maximum Humidity 100    
Minimum Humidity 42    
Precipitation  
Precipitation 0.09 in 0.15 in 1.01 in (2000)
Month to date precipitation 5.10 4.14  
Year to date precipitation 23.21 24.30  
Sea Level Pressure  
Sea Level Pressure 30.01 in    
Wind  
Wind Speed 2 mph (SW)    
Max Wind Speed 15 mph    
Max Gust Speed 22 mph    
Visibility 4 miles    
Events Fog , Rain , Thunderstorm    
T = Trace of Precipitation, MM = Missing Value Source: NWS Daily Summary

Daily Weather History Graph

Daily Weather History Graph

Search for Another Location

Airport or City:

Trip Planner

Search our weather history database for the weather conditions in past years. The results will help you decide how hot, cold, wet, or windy it might be!

Date:

Astronomy

Jul. 29, 2013 Rise Set
Actual Time 5:37 AM EDT 8:15 PM EDT
Civil Twilight 5:04 AM EDT 8:48 PM EDT
Nautical Twilight 4:23 AM EDT 9:28 PM EDT
Astronomical Twilight 3:36 AM EDT 10:15 PM EDT
Moon 11:56 PM EDT (7/29) 1:31 PM EDT (7/29)
Length of Visible Light 15h 43m
Length of Day
14h 38m
Waning Gibbous, 51% of the Moon is Illuminated
Jul 29
Waning Gibbous
Jul 29
Last Quarter
Aug 6
New
Aug 14
First Quarter
Aug 20
Full

Hourly Weather History & Observations

Time (EDT) Temp. Heat Index Dew Point Humidity Pressure Visibility Wind Dir Wind Speed Gust Speed Precip Events Conditions
12:16 AM 69.8 °F - 66.2 °F 88% 30.00 in 2.0 mi Calm Calm - N/A   Overcast
12:45 AM 68.0 °F - 66.2 °F 94% 29.99 in 1.2 mi Calm Calm - N/A   Mostly Cloudy
12:54 AM 68.0 °F - 66.0 °F 93% 29.99 in 1.2 mi Calm Calm - N/A   Mostly Cloudy
1:03 AM 66.2 °F - 66.2 °F 100% 30.00 in 0.5 mi Calm Calm - N/A Fog Fog
1:18 AM 68.0 °F - 66.2 °F 94% 30.00 in 1.2 mi Calm Calm - N/A   Overcast
1:26 AM 66.2 °F - 66.2 °F 100% 30.00 in 0.5 mi Calm Calm - N/A Fog Fog
1:39 AM 66.2 °F - 66.2 °F 100% 30.00 in 0.2 mi Calm Calm - 0.04 in Fog , Rain Rain
1:52 AM 68.0 °F - 66.2 °F 94% 29.99 in 1.0 mi Calm Calm - 0.09 in Rain Rain
1:53 AM 68.0 °F - 66.0 °F 93% 29.99 in 1.2 mi Calm Calm - 0.09 in Rain Light Rain
2:09 AM 66.2 °F - 66.2 °F 100% 29.99 in 3.0 mi Calm Calm - 0.00 in Rain Light Rain
2:42 AM 66.2 °F - 66.2 °F 100% 29.99 in 2.5 mi Calm Calm - 0.00 in   Overcast
2:52 AM 66.2 °F - 66.2 °F 100% 29.98 in 2.5 mi Calm Calm - 0.00 in   Overcast
2:54 AM 66.9 °F - 66.0 °F 97% 29.98 in 2.5 mi Calm Calm - 0.00 in   Overcast
3:14 AM 66.2 °F - 66.2 °F 100% 29.99 in 5.0 mi Calm Calm - N/A   Mostly Cloudy
3:23 AM 66.2 °F - 66.2 °F 100% 29.99 in 1.8 mi Calm Calm - N/A   Overcast
3:43 AM 66.2 °F - 66.2 °F 100% 29.99 in 2.0 mi Calm Calm - N/A   Mostly Cloudy
3:48 AM 66.2 °F - 66.2 °F 100% 29.99 in 0.8 mi Calm Calm - N/A   Mostly Cloudy
3:54 AM 66.0 °F - 66.0 °F 100% 29.99 in 0.5 mi Calm Calm - N/A Fog Fog
4:01 AM 66.2 °F - 66.2 °F 100% 29.99 in 0.2 mi Calm Calm - N/A Fog Fog
4:10 AM 66.2 °F - 66.2 °F 100% 29.99 in 0.5 mi Calm Calm - N/A Fog Fog
4:17 AM 66.2 °F - 66.2 °F 100% 30.00 in 1.0 mi Calm Calm - N/A   Overcast
4:35 AM 66.2 °F - 64.4 °F 94% 29.99 in 2.0 mi Calm Calm - N/A   Mostly Cloudy
4:44 AM 64.4 °F - 64.4 °F 100% 30.00 in 1.8 mi Calm Calm - N/A   Partly Cloudy
4:46 AM 64.4 °F - 64.4 °F 100% 30.00 in 0.8 mi Calm Calm - N/A   Partly Cloudy
4:54 AM 64.9 °F - 64.9 °F 100% 29.99 in 0.2 mi Calm Calm - N/A Fog Fog
5:02 AM 64.4 °F - 64.4 °F 100% 30.00 in 0.5 mi Calm Calm - N/A Fog Fog
5:08 AM 64.4 °F - 64.4 °F 100% 30.00 in 0.2 mi Calm Calm - N/A Fog Fog
5:16 AM 64.4 °F - 64.4 °F 100% 30.00 in 0.8 mi Calm Calm - N/A   Mostly Cloudy
5:24 AM 64.4 °F - 64.4 °F 100% 30.00 in 0.8 mi Calm Calm - N/A   Mostly Cloudy
5:31 AM 64.4 °F - 64.4 °F 100% 30.00 in 1.5 mi Calm Calm - N/A   Overcast
5:43 AM 64.4 °F - 64.4 °F 100% 30.01 in 0.5 mi Calm Calm - N/A Fog Fog
5:54 AM 64.9 °F - 64.9 °F 100% 30.01 in 0.8 mi Calm Calm - N/A   Overcast
6:02 AM 64.4 °F - 64.4 °F 100% 30.01 in 0.2 mi Calm Calm - N/A Fog Fog
6:54 AM 64.9 °F - 64.9 °F 100% 30.01 in 0.2 mi Calm Calm - N/A Fog Fog
7:36 AM 66.2 °F - 64.4 °F 94% 30.02 in 0.2 mi Calm Calm - N/A Fog Fog
7:54 AM 66.0 °F - 64.9 °F 96% 30.02 in 0.2 mi Calm Calm - N/A Fog Fog
8:14 AM 66.2 °F - 64.4 °F 94% 30.03 in 1.0 mi SE 3.5 mph - N/A   Overcast
8:21 AM 66.2 °F - 64.4 °F 94% 30.03 in 2.0 mi SE 3.5 mph - N/A   Overcast
8:31 AM 68.0 °F - 66.2 °F 94% 30.03 in 6.0 mi ESE 3.5 mph - N/A   Mostly Cloudy
8:49 AM 68.0 °F - 64.4 °F 88% 30.03 in 10.0 mi Calm Calm - N/A   Mostly Cloudy
8:54 AM 69.1 °F - 64.9 °F 87% 30.03 in 10.0 mi Calm Calm - N/A   Scattered Clouds
9:17 AM 71.6 °F - 66.2 °F 83% 30.03 in 10.0 mi South 4.6 mph - N/A   Mostly Cloudy
9:27 AM 69.8 °F - 64.4 °F 83% 30.03 in 10.0 mi SSW 3.5 mph - N/A   Scattered Clouds
9:54 AM 71.1 °F - 64.9 °F 81% 30.03 in 10.0 mi Calm Calm - N/A   Mostly Cloudy
10:54 AM 75.0 °F - 64.9 °F 71% 30.02 in 10.0 mi Calm Calm - N/A   Clear
11:54 AM 79.0 °F - 64.0 °F 60% 30.01 in 10.0 mi Variable 4.6 mph - N/A   Mostly Cloudy
12:54 PM 75.9 °F - 62.1 °F 62% 30.00 in 10.0 mi Calm Calm - 0.00 in   Overcast
1:54 PM 75.9 °F - 62.1 °F 62% 30.00 in 10.0 mi Calm Calm - N/A   Overcast
2:54 PM 81.0 °F 81.3 °F 59.0 °F 47% 29.99 in 10.0 mi WSW 11.5 mph 16.1 mph 0.00 in   Mostly Cloudy
3:17 PM 80.6 °F 80.8 °F 57.2 °F 45% 29.99 in 10.0 mi West 10.4 mph 17.3 mph N/A Thunderstorm Scattered Clouds
3:41 PM 82.4 °F 82.0 °F 57.2 °F 42% 29.99 in 10.0 mi West 9.2 mph 16.1 mph N/A   Scattered Clouds
3:54 PM 82.0 °F 81.7 °F 57.0 °F 42% 29.98 in 10.0 mi WSW 10.4 mph - N/A   Partly Cloudy
4:54 PM 81.0 °F 80.7 °F 55.0 °F 41% 29.99 in 10.0 mi West 11.5 mph - N/A   Clear
5:54 PM 79.0 °F - 55.9 °F 45% 29.99 in 10.0 mi West 9.2 mph - N/A   Clear
6:54 PM 77.0 °F - 55.0 °F 47% 30.01 in 10.0 mi West 9.2 mph - N/A   Clear
7:33 PM 73.4 °F - 55.4 °F 53% 30.02 in 10.0 mi Calm Calm - N/A   Partly Cloudy
7:54 PM 71.1 °F - 59.0 °F 66% 30.03 in 10.0 mi Calm Calm - N/A   Partly Cloudy
8:54 PM 66.9 °F - 57.9 °F 73% 30.06 in 10.0 mi Calm Calm - N/A   Clear
9:54 PM 64.9 °F - 59.0 °F 81% 30.08 in 10.0 mi Calm Calm - N/A   Mostly Cloudy
10:54 PM 62.1 °F - 59.0 °F 90% 30.08 in 10.0 mi Calm Calm - N/A   Clear
11:54 PM 60.1 °F - 57.9 °F 93% 30.09 in 10.0 mi Calm Calm - N/A   Clear